{"data":{"norad_id":59242,"epoch":"2026-09-20T08:21:49.547232Z","epoch_age_seconds":171944,"freshness":"FRESH","line1":"1 59242U 24049M   26263.34849013  .00001841  00000+0  76420-4 0  9998","line2":"2 59242  43.0029 124.4591 0001483 275.3960  84.6723 15.27578987142170","mean_motion":15.27578987,"eccentricity":0.0001483,"inclination_deg":43.0029,"raan_deg":124.4591,"arg_perigee_deg":275.396,"mean_anomaly_deg":84.6723,"bstar":7.642e-5,"rev_number":14217,"period_min":94.266811225782,"perigee_km":482.03461497988,"apogee_km":484.06964367563,"semimajor_km":6861.1891293278,"source":"CELESTRAK","updated_at":"2026-09-21T09:00:34.076647Z"}}